DW0333 Tranby-Lier NO current weather conditions

sailwx.info

Wind from 068

Air temperature -1.1° C
Dewpoint -1.7° C

Last reported at 2014-Nov-22 15:37 UTC.
Time now 2014-Nov-22 16:52 UTC

Location: N 59°50' E 010°17'.
View on Google Maps.

See reports from other nearby stations

  
Tides and Currents Weather Stations Pressure Air Temp Water Temp Dewpoint Dewpoint Depression Visibility Wind Speed Wind Dir Waves Ship Positions
date/time (UTC)wind fromknots sea level pressurealtimeterstation pressurevisibilityair tempwater tempwave heightnotes
2014-Nov-22 15:37 068 -1.1
2014-Nov-22 15:22 079 0 -1.1
2014-Nov-22 15:07 009 -1.1
2014-Nov-22 14:52 003 -1.1
2014-Nov-22 14:37 002 -1.1
2014-Nov-22 14:22 003 -1.1
2014-Nov-22 14:06 046 0 -1.1
2014-Nov-22 13:51 020 0 -1.1
2014-Nov-22 13:37 053 -1.1
2014-Nov-22 13:22 059 0 -1.1
2014-Nov-22 13:06 059 -1.1
2014-Nov-22 12:51 059 -1.1
2014-Nov-22 12:34 059 0 -1.1
2014-Nov-22 12:19 048 0 -0.6
2014-Nov-22 12:04 048 -0.6
2014-Nov-22 11:49 054 -0.0
2014-Nov-22 11:34 054 0 0.6
2014-Nov-22 11:19 067 0 1.1
2014-Nov-22 11:03 067 0 1.1
2014-Nov-22 10:48 067 0 0.6
2014-Nov-22 10:33 034 -0.0
2014-Nov-22 10:18 034 -1.1
2014-Nov-22 10:02 048 0 -1.1
2014-Nov-22 09:48 052 0 -1.1
2014-Nov-22 09:32 033 0 -1.1
2014-Nov-22 09:17 035 0 -1.1
2014-Nov-22 09:02 013 0 -1.7
2014-Nov-22 08:47 326 0 -2.2
2014-Nov-22 08:32 333 0 -2.8
2014-Nov-22 08:17 027 -2.8
2014-Nov-22 08:02 027 0 -2.8
2014-Nov-22 07:46 027 -2.2
2014-Nov-22 07:31 027 -2.2
2014-Nov-22 07:17 027 0 -2.2
2014-Nov-22 06:59 027 0 -2.2
2014-Nov-22 06:44 027 0 -2.2
2014-Nov-22 06:29 027 0 -2.2
2014-Nov-22 06:14 027 0 -2.2
2014-Nov-22 05:59 027 0 -2.2
2014-Nov-22 05:43 040 0 -2.2
2014-Nov-22 05:28 040 0 -2.2
2014-Nov-22 05:13 040 0 -2.2
2014-Nov-22 04:58 039 0 -1.7
2014-Nov-22 04:43 036 0 -1.7
2014-Nov-22 04:27 011 -1.7
2014-Nov-22 04:13 011 -1.1
2014-Nov-22 03:58 023 0 -1.1
2014-Nov-22 03:43 029 0 -1.1
2014-Nov-22 03:28 030 -1.1
2014-Nov-22 03:11 030 -1.1
2014-Nov-22 02:56 030 0 -1.1
2014-Nov-22 02:42 034 0 -1.1
2014-Nov-22 02:26 039 0 -1.1
2014-Nov-22 02:12 349 -1.1
2014-Nov-22 01:57 349 -1.1
2014-Nov-22 01:41 049 -1.1
2014-Nov-22 01:24 050 -1.1
2014-Nov-22 01:10 075 0 -1.1
2014-Nov-22 00:55 357 -1.1
2014-Nov-22 00:39 304 -0.6
2014-Nov-22 00:24 360 -0.6
2014-Nov-22 00:08 360 -0.6
2014-Nov-21 23:53 359 -0.6
2014-Nov-21 23:39 358 0 -0.6
2014-Nov-21 23:23 325 -0.6
2014-Nov-21 23:07 095 0 -0.6
2014-Nov-21 22:52 107 0 -0.6
2014-Nov-21 22:37 109 0 -0.6
2014-Nov-21 22:22 001 -0.6
2014-Nov-21 22:07 354 -0.6
2014-Nov-21 21:52 354 -0.6
2014-Nov-21 21:37 292 0 -0.6
2014-Nov-21 21:21 337 0 -0.6
2014-Nov-21 21:06 321 0 -0.6
2014-Nov-21 20:51 305 0 -0.6
2014-Nov-21 20:36 017 0 -0.6
2014-Nov-21 20:21 360 -0.6
2014-Nov-21 20:06 347 0 -0.6
2014-Nov-21 19:50 319 -0.6
2014-Nov-21 19:34 341 0 -0.6
2014-Nov-21 19:19 354 0 -0.6
2014-Nov-21 19:04 333 0 -0.6
2014-Nov-21 18:49 350 0 -0.6
2014-Nov-21 18:33 333 1 -0.6
2014-Nov-21 18:18 342 1 -0.6
2014-Nov-21 18:03 338 0 -0.6
2014-Nov-21 17:48 344 1 -0.6
2014-Nov-21 17:33 300 1 -0.6
2014-Nov-21 17:17 325 1 -0.6
2014-Nov-21 17:03 352 1 -0.6
2014-Nov-21 16:47 325 1 -0.6
2014-Nov-21 16:32 311 1 -0.6
2014-Nov-21 16:17 325 1 -0.6
2014-Nov-21 16:02 327 1 -0.6
2014-Nov-21 15:46 345 1 -0.6
2014-Nov-21 15:31 352 1 -0.6
2014-Nov-21 15:16 321 1 -0.6
2014-Nov-21 15:01 340 1 -0.6
2014-Nov-21 14:46 327 1 -0.6
2014-Nov-21 14:31 330 1 -0.0
2014-Nov-21 14:16 355 1 -0.0
2014-Nov-21 13:59 337 2 -0.0
2014-Nov-21 13:44 343 1 -0.0
2014-Nov-21 13:29 340 1 -0.0
2014-Nov-21 13:14 345 1 -0.0
2014-Nov-21 12:58 329 1 -0.0
2014-Nov-21 12:43 302 1 -0.0
2014-Nov-21 12:28 325 0 -0.0
2014-Nov-21 12:13 349 0 -0.0
2014-Nov-21 11:58 313 0 -0.0
2014-Nov-21 11:42 335 0 -0.0
2014-Nov-21 11:27 007 1 -0.0
2014-Nov-21 11:12 341 1 -0.0
2014-Nov-21 10:57 330 0 -0.0
2014-Nov-21 10:42 338 0 -0.0
2014-Nov-21 10:27 327 1 -0.0
2014-Nov-21 10:11 354 1 -0.0
2014-Nov-21 09:57 357 1 -0.0
2014-Nov-21 09:41 354 0 -0.6
2014-Nov-21 09:26 324 1 -0.6
2014-Nov-21 09:11 005 0 -0.6
2014-Nov-21 08:56 308 1 -0.6
2014-Nov-21 08:39 307 0 -0.6
2014-Nov-21 08:26 329 0 -0.6
2014-Nov-21 08:09 333 0 -0.6
2014-Nov-21 07:54 356 0 -0.6
2014-Nov-21 07:39 329 0 -0.6
2014-Nov-21 07:23 290 1 -0.6
2014-Nov-21 07:08 022 1 -0.6
2014-Nov-21 06:53 058 1 -0.6
2014-Nov-21 06:39 311 1 -0.6
2014-Nov-21 06:23 339 0 -0.6
2014-Nov-21 06:08 322 0 -0.6
2014-Nov-21 05:52 329 -0.6
2014-Nov-21 05:37 329 0 -0.6
2014-Nov-21 05:22 330 0 -0.6
2014-Nov-21 05:07 320 1 -0.6
2014-Nov-21 04:52 326 0 -0.6
2014-Nov-21 04:37 324 0 -0.6
2014-Nov-21 04:21 330 0 -0.6
2014-Nov-21 04:06 323 0 -0.6
2014-Nov-21 03:51 326 1 -0.6
2014-Nov-21 03:36 310 1 -0.6
2014-Nov-21 03:23 325 0 -0.6
2014-Nov-21 03:06 326 0 -0.6
2014-Nov-21 02:49 313 0 -0.6
2014-Nov-21 02:34 340 0 -0.6
2014-Nov-21 02:19 322 0 -0.6
2014-Nov-21 02:04 330 0 -0.6
2014-Nov-21 01:49 327 0 -0.6
2014-Nov-21 01:33 342 1 -0.6
2014-Nov-21 01:18 327 1 -0.6
2014-Nov-21 01:03 331 0 -0.6
2014-Nov-21 00:48 342 0 -0.6
2014-Nov-21 00:32 346 0 -0.6
2014-Nov-21 00:17 319 0 -0.6
2014-Nov-21 00:02 331 0 -0.6
2014-Nov-20 23:47 325 0 -0.6
2014-Nov-20 23:32 314 0 -0.6
2014-Nov-20 23:17 321 0 -0.6
2014-Nov-20 23:01 308 0 -0.6
2014-Nov-20 22:46 322 0 -0.6
2014-Nov-20 22:31 337 0 -0.6
2014-Nov-20 22:16 325 0 -0.6
2014-Nov-20 22:01 307 0 -0.6
2014-Nov-20 21:46 328 0 -0.6
2014-Nov-20 21:31 331 0 -0.6
2014-Nov-20 21:14 357 0 -0.6
2014-Nov-20 20:59 326 0 -0.6
2014-Nov-20 20:44 316 0 -0.6
2014-Nov-20 20:29 331 0 -0.6
2014-Nov-20 20:13 334 0 -0.6
2014-Nov-20 19:58 340 0 -0.6
2014-Nov-20 19:43 308 0 -0.6
2014-Nov-20 19:28 321 0 -0.6
2014-Nov-20 19:12 310 -0.6
2014-Nov-20 18:57 299 0 -0.6
2014-Nov-20 18:42 338 -0.6
2014-Nov-20 18:28 343 0 -0.6
2014-Nov-20 18:12 315 -0.6
2014-Nov-20 17:57 351 -0.6
2014-Nov-20 17:42 346 -0.6
2014-Nov-20 17:26 310 0 -0.6
2014-Nov-20 17:11 342 0 -0.6
2014-Nov-20 16:56 354 -0.6
2014-Nov-20 16:41 310 0 -0.6
2014-Nov-20 16:26 332 -0.6
2014-Nov-20 16:11 307 0 -0.6